Wind_Speed
13 13 13 13 13 12 13 12 12 12 12 11 11 11 12 12 12 12 12 13 12 11 11 11 10 10 10 10 10 11 10 9 9 9 9 10 11 12 12 12 12 12 12
13 13 13 12 13 13 12 12 12 13 12 12 11 11 11 11 12 11 12 12 12 12 11 11 11 10 9 9 9 10 11 11 11 10 10 11 12 12 12 12 13 12 12
13 13 13 13 13 13 13 12 13 13 12 13 12 12 11 11 11 12 12 13 13 12 11 11 11 10 10 9 9 10 10 10 11 11 11 11 12 12 12 12 12 12 13
13 13 13 13 13 13 13 12 12 12 13 13 13 13 13 12 12 12 13 13 13 12 12 12 11 11 11 10 10 10 10 10 11 11 11 11 11 11 12 12 13 13 13
12 13 13 13 13 13 13 12 12 12 12 12 12 13 13 12 12 12 12 13 13 12 12 12 11 12 12 12 11 11 10 11 11 12 12 12 12 12 12 13 14 14 14
12 12 12 13 13 14 14 13 12 12 12 12 12 12 12 12 12 12 12 13 12 12 12 12 12 12 13 13 12 12 12 12 12 12 12 12 12 12 12 13 14 13 14
12 11 12 12 13 13 14 13 13 13 12 12 12 12 12 13 13 13 13 13 13 12 13 13 13 13 13 13 13 12 12 13 13 13 13 13 13 13 13 13 13 14 14
11 11 12 12 12 13 13 14 14 14 13 13 13 12 13 14 14 13 13 14 14 14 14 14 13 14 14 13 13 13 13 13 14 14 14 14 14 13 14 14 14 14 15
12 13 13 13 13 13 14 15 15 15 15 15 15 15 14 14 14 13 13 13 14 14 14 15 14 14 14 14 13 13 14 14 15 14 14 14 14 14 14 15 15 15 15
13 13 13 14 14 14 15 15 16 17 17 17 16 16 15 15 14 14 14 14 14 15 15 15 15 14 14 14 14 14 13 14 14 15 14 14 14 15 15 15 15 15 14
14 14 14 15 15 15 15 16 17 18 18 18 17 17 16 16 15 15 15 15 15 15 15 15 15 15 14 14 13 13 13 14 14 14 14 14 14 15 15 15 14 15 15
15 15 15 16 16 16 16 17 17 18 19 19 18 18 17 17 16 16 16 16 16 15 15 15 15 15 14 14 14 14 14 14 14 15 15 14 15 15 15 14 15 15 15
17 17 17 17 18 18 17 17 18 18 19 19 19 19 18 18 18 17 17 17 16 16 16 16 15 15 15 15 15 15 15 15 15 15 15 15 15 15 15 15 15 16 16
20 19 18 18 18 18 19 18 19 19 19 20 20 20 20 19 19 18 18 18 18 18 18 17 16 16 16 16 16 16 16 16 16 16 16 16 16 15 15 15 16 16 16
20 20 19 19 18 18 19 19 19 20 20 20 20 21 20 20 20 20 20 19 19 19 19 18 18 17 17 17 17 17 17 16 16 16 16 16 16 16 16 16 17 17 17
20 20 19 19 19 19 19 19 19 20 20 20 20 21 20 21 21 21 21 21 21 20 20 20 19 18 18 18 18 18 17 17 17 17 17 16 16 16 17 17 17 17 17
20 20 20 19 19 18 19 20 20 20 21 21 21 21 21 21 21 22 22 21 21 21 21 20 20 19 19 19 19 19 18 18 18 18 17 17 17 17 17 18 18 18 18
20 20 20 20 20 20 20 20 21 21 21 22 22 21 22 22 21 21 21 22 22 22 22 21 21 20 20 20 19 19 19 19 19 19 18 18 17 17 17 18 18 18 19
21 21 21 22 21 21 21 21 22 22 21 21 22 23 22 21 21 21 21 22 22 22 22 22 21 21 21 21 20 20 20 19 20 20 19 19 19 18 18 18 18 19 19
22 22 22 22 22 22 22 23 23 22 21 21 22 23 23 22 21 21 21 21 21 21 21 21 22 22 21 21 20 20 20 20 20 20 20 20 20 19 19 19 19 20 20
23 23 23 23 22 23 22 23 23 22 22 22 22 22 22 23 23 22 22 22 22 21 21 21 21 21 21 21 20 20 21 21 21 21 21 21 20 20 20 20 20 20 21
24 24 24 24 23 23 23 23 24 24 23 23 23 23 23 23 23 23 23 22 22 22 21 21 21 21 21 21 21 21 22 22 22 22 22 21 21 21 20 20 21 21 21
25 25 24 24 24 24 24 23 24 24 24 24 23 23 24 24 23 23 23 22 22 22 22 22 21 21 21 21 21 22 22 22 22 22 22 21 21 21 21 21 21 21 21
26 26 26 25 25 24 24 23 24 24 24 24 24 24 24 24 24 23 24 24 24 24 23 24 23 22 22 22 22 22 22 22 22 23 23 23 22 22 21 21 21 21 21
26 26 26 26 26 25 25 25 25 25 25 25 26 25 25 25 25 25 26 25 25 25 25 24 24 24 23 24 23 23 23 23 23 23 23 23 23 22 21 21 21 21 21
27 26 25 26 25 25 25 25 25 25 25 25 26 27 26 26 26 27 27 27 27 27 26 26 25 25 25 25 25 25 24 23 23 22 22 22 22 22 22 21 21 21 21
Wind_Direction
278 276 275 271 267 266 261 259 257 255 253 254 251 249 248 246 249 251 249 246 244 248 251 253 252 252 254 254 251 250 253 261 267 271 271 274 278 275 267 263 260 261 261
274 274 274 273 272 271 269 267 260 255 252 253 249 249 250 250 253 251 248 246 246 248 250 253 253 254 257 257 256 256 258 263 267 272 274 277 277 275 270 264 262 262 261
273 274 272 271 273 275 272 268 258 251 251 252 250 249 247 249 253 251 251 250 248 249 249 252 251 252 257 259 260 262 267 270 270 272 276 278 276 275 272 268 265 265 263
279 271 268 269 270 274 272 268 263 258 254 253 253 250 247 248 251 251 253 250 250 251 251 250 250 253 258 261 262 265 269 276 275 273 278 280 275 273 272 268 268 268 265
284 274 268 268 269 268 267 264 264 261 256 252 250 252 249 248 248 251 253 249 248 248 249 248 252 255 257 261 263 263 270 274 274 276 279 281 275 273 273 270 269 267 265
284 279 272 268 269 267 263 259 256 255 254 252 250 250 247 247 248 251 251 249 247 246 248 247 254 256 257 259 262 263 270 273 273 276 279 280 278 274 273 273 271 267 265
283 279 277 272 269 268 262 257 253 253 253 252 251 248 245 247 250 253 251 249 248 247 249 251 256 259 262 263 266 267 270 271 274 278 282 279 277 276 275 273 271 268 268
283 279 277 275 270 266 262 257 253 253 253 252 251 247 248 249 250 253 253 250 249 251 253 254 257 261 266 267 270 271 270 273 277 280 282 280 276 275 273 270 269 268 268
283 283 279 275 272 266 263 258 255 253 253 253 252 252 250 251 252 253 253 251 250 253 256 256 259 262 264 269 273 276 275 277 280 281 281 280 275 273 272 270 268 269 267
283 283 282 279 273 269 264 260 256 255 254 253 253 250 249 252 253 253 254 252 250 251 255 257 260 261 264 267 272 275 277 277 278 281 280 277 275 274 273 272 271 270 269
281 281 280 278 274 271 267 262 257 255 255 253 250 249 252 254 254 253 252 250 249 251 253 257 259 260 263 266 267 272 276 276 276 277 278 276 276 276 272 271 271 270 271
276 277 277 275 272 270 268 263 258 255 254 254 251 253 253 253 252 252 251 249 250 251 253 257 259 258 259 262 264 268 272 276 277 277 277 277 276 277 274 271 271 272 272
276 275 273 273 271 268 267 264 259 257 257 256 255 255 254 253 252 251 251 250 251 252 253 256 257 257 256 260 264 267 272 275 277 277 278 278 276 275 274 272 273 273 274
276 275 272 270 272 270 267 265 260 257 258 258 257 256 256 253 251 251 250 250 252 253 253 254 255 256 257 262 266 268 272 274 275 276 277 278 278 273 272 272 273 274 273
275 275 274 271 272 271 268 264 260 256 256 257 257 257 256 253 251 251 251 253 254 253 253 254 255 256 258 261 266 269 271 272 274 275 277 280 278 274 273 272 272 272 272
274 274 271 269 270 271 267 263 260 255 254 255 256 255 255 254 253 253 252 254 253 251 253 254 254 256 257 259 263 268 268 270 272 275 279 280 278 273 271 271 272 273 272
273 273 272 271 269 269 266 261 259 257 254 254 255 255 255 257 253 252 251 250 251 251 251 253 254 256 257 259 262 264 267 269 270 274 277 280 279 274 271 270 272 272 273
273 273 272 271 268 268 266 261 260 259 257 255 255 256 255 257 254 253 252 251 250 250 251 253 255 256 256 259 262 263 266 266 268 272 274 278 277 275 274 272 273 274 275
272 273 273 272 270 268 264 261 260 259 257 256 255 256 257 258 256 253 252 251 249 250 250 252 254 255 257 259 261 263 265 266 270 272 273 276 276 274 275 275 275 274 274
271 272 272 269 268 267 263 259 260 258 256 258 256 254 256 257 258 256 252 250 250 252 251 253 254 255 257 259 260 261 264 266 270 273 274 275 275 275 276 276 277 275 274
269 271 271 268 266 265 263 260 258 256 256 257 257 254 254 255 255 255 253 250 251 251 252 254 255 255 257 257 259 262 264 266 271 274 274 274 273 273 275 275 276 276 274
268 269 271 271 267 264 263 260 258 257 256 257 256 254 253 253 252 252 252 253 252 251 252 253 254 256 258 259 261 263 265 267 270 273 275 274 272 272 273 274 275 277 277
267 266 268 270 268 265 262 261 260 258 257 257 257 255 252 251 249 249 250 251 251 252 254 255 255 257 260 261 262 264 266 270 271 273 273 273 272 272 273 275 276 277 276
267 265 266 269 270 269 263 261 260 258 256 255 255 254 251 249 248 247 248 250 251 252 254 256 256 257 260 261 262 264 267 270 272 272 271 271 271 272 273 274 275 276 276
269 266 264 265 267 268 265 262 260 258 255 254 254 254 252 250 248 247 247 249 250 252 254 255 257 259 260 262 263 264 267 269 271 272 271 270 269 270 271 273 273 274 276
267 266 265 264 264 263 263 261 259 258 255 254 253 252 251 250 249 248 248 248 249 251 251 254 257 257 258 258 260 263 266 269 271 272 271 270 269 269 268 271 273 273 275
Height
5849 5848 5847 5847 5846 5846 5845 5845 5845 5846 5846 5846 5847 5847 5848 5849 5849 5850 5851 5851 5852 5853 5853 5854 5854 5855 5855 5856 5856 5856 5857 5857 5857 5857 5856 5856 5856 5856 5856 5856 5856 5856 5856
5846 5845 5844 5844 5843 5843 5843 5842 5842 5842 5843 5843 5844 5845 5845 5846 5847 5847 5848 5849 5849 5850 5850 5851 5852 5852 5853 5853 5853 5854 5854 5854 5854 5854 5854 5854 5854 5853 5853 5853 5853 5852 5852
5843 5842 5841 5841 5840 5840 5840 5839 5839 5839 5840 5840 5841 5841 5843 5843 5844 5844 5845 5846 5846 5847 5847 5848 5849 5850 5850 5851 5851 5851 5851 5851 5851 5851 5851 5851 5851 5850 5850 5849 5849 5849 5849
5840 5839 5838 5838 5838 5837 5837 5836 5836 5836 5836 5836 5837 5838 5839 5840 5841 5841 5842 5843 5843 5844 5845 5846 5846 5847 5848 5848 5848 5848 5848 5848 5848 5848 5848 5847 5847 5847 5846 5846 5846 5846 5845
5836 5836 5835 5835 5834 5834 5833 5833 5833 5833 5833 5833 5834 5835 5836 5837 5838 5838 5839 5840 5840 5841 5842 5843 5843 5844 5845 5845 5845 5845 5845 5845 5845 5845 5845 5844 5843 5843 5843 5843 5843 5842 5842
5833 5832 5831 5831 5830 5830 5830 5830 5830 5831 5831 5831 5831 5832 5833 5834 5835 5835 5836 5836 5837 5838 5839 5839 5840 5841 5841 5842 5842 5842 5842 5842 5842 5841 5841 5841 5840 5839 5839 5839 5839 5839 5839
5829 5829 5828 5828 5827 5826 5826 5827 5827 5827 5828 5828 5828 5829 5829 5830 5831 5832 5832 5833 5834 5835 5836 5836 5837 5837 5838 5838 5838 5838 5838 5838 5838 5838 5837 5837 5837 5836 5836 5835 5835 5835 5835
5826 5826 5825 5824 5824 5823 5823 5823 5824 5824 5825 5825 5825 5826 5826 5827 5828 5828 5829 5830 5831 5832 5832 5833 5833 5834 5834 5834 5834 5834 5834 5835 5835 5834 5834 5833 5833 5833 5832 5832 5832 5832 5832
5823 5822 5821 5821 5820 5820 5820 5820 5820 5821 5821 5821 5822 5822 5823 5824 5824 5825 5825 5826 5827 5828 5829 5829 5830 5830 5831 5831 5831 5831 5831 5831 5831 5831 5830 5829 5829 5829 5828 5828 5828 5828 5828
5819 5818 5818 5817 5817 5816 5816 5816 5816 5817 5817 5817 5818 5819 5819 5820 5821 5821 5822 5823 5824 5824 5825 5825 5826 5826 5827 5827 5827 5827 5827 5828 5827 5827 5826 5825 5825 5825 5824 5824 5824 5824 5824
5815 5814 5814 5813 5813 5812 5812 5812 5812 5812 5813 5813 5814 5815 5815 5816 5817 5817 5818 5819 5819 5820 5821 5821 5822 5822 5823 5823 5824 5824 5824 5824 5823 5823 5822 5822 5821 5820 5820 5820 5820 5820 5820
5811 5810 5809 5809 5808 5808 5807 5807 5807 5807 5808 5809 5810 5810 5811 5812 5812 5813 5814 5814 5815 5816 5817 5818 5818 5819 5819 5820 5820 5820 5820 5820 5819 5819 5818 5818 5817 5817 5816 5816 5816 5816 5815
5806 5805 5804 5803 5803 5802 5802 5802 5802 5802 5803 5804 5805 5806 5806 5807 5808 5809 5809 5810 5811 5812 5813 5814 5814 5815 5815 5816 5816 5816 5816 5816 5815 5815 5814 5813 5813 5813 5812 5812 5812 5811 5811
5800 5799 5798 5798 5797 5797 5797 5797 5797 5797 5798 5799 5800 5800 5801 5802 5803 5804 5805 5806 5807 5808 5809 5809 5810 5811 5811 5812 5812 5812 5812 5811 5811 5810 5810 5809 5809 5808 5808 5808 5808 5807 5807
5794 5793 5792 5792 5792 5791 5791 5791 5792 5792 5793 5793 5794 5795 5796 5797 5798 5799 5800 5801 5802 5803 5804 5805 5806 5806 5807 5807 5808 5807 5807 5807 5806 5806 5805 5805 5804 5804 5804 5803 5803 5803 5802
5788 5787 5786 5786 5786 5786 5785 5786 5786 5787 5787 5788 5789 5790 5790 5791 5792 5793 5795 5796 5797 5798 5799 5800 5801 5802 5802 5803 5803 5803 5802 5802 5802 5801 5801 5800 5799 5799 5799 5798 5798 5798 5798
5782 5781 5780 5780 5780 5780 5780 5780 5780 5781 5781 5782 5783 5784 5785 5786 5786 5788 5789 5790 5791 5792 5794 5795 5796 5796 5797 5798 5798 5798 5798 5797 5797 5796 5796 5795 5794 5794 5794 5793 5793 5793 5792
5775 5775 5774 5774 5774 5773 5773 5773 5774 5775 5775 5777 5777 5778 5779 5780 5780 5782 5783 5784 5785 5786 5788 5789 5790 5791 5792 5792 5793 5793 5792 5792 5792 5791 5791 5790 5789 5789 5788 5788 5788 5788 5787
5769 5768 5768 5767 5767 5766 5766 5767 5767 5768 5769 5771 5771 5772 5773 5774 5775 5776 5777 5778 5779 5780 5782 5783 5784 5785 5786 5787 5787 5787 5787 5787 5787 5786 5785 5785 5784 5784 5783 5783 5782 5782 5782
5762 5762 5761 5761 5760 5760 5759 5760 5761 5762 5763 5764 5765 5766 5767 5768 5769 5770 5771 5772 5773 5774 5776 5777 5778 5779 5780 5781 5781 5781 5781 5781 5781 5780 5780 5779 5779 5778 5777 5777 5776 5776 5776
5755 5755 5754 5754 5753 5753 5753 5753 5754 5755 5756 5757 5759 5760 5761 5762 5763 5764 5765 5766 5767 5769 5770 5771 5772 5773 5774 5774 5775 5775 5775 5775 5775 5774 5774 5773 5772 5772 5771 5771 5771 5770 5770
5747 5747 5747 5746 5746 5746 5746 5747 5747 5748 5749 5750 5752 5753 5754 5755 5757 5758 5759 5760 5761 5763 5764 5765 5766 5767 5767 5768 5768 5769 5769 5769 5768 5768 5767 5766 5766 5766 5765 5765 5765 5764 5763
5739 5739 5739 5739 5739 5739 5739 5740 5741 5741 5743 5744 5745 5746 5748 5749 5750 5752 5753 5754 5755 5756 5758 5759 5760 5761 5761 5761 5762 5762 5762 5762 5762 5761 5760 5760 5759 5759 5759 5758 5758 5757 5756
5731 5731 5731 5731 5731 5731 5732 5732 5733 5734 5736 5737 5738 5739 5741 5742 5743 5745 5746 5748 5749 5750 5751 5753 5753 5754 5754 5755 5755 5755 5755 5755 5754 5753 5753 5752 5752 5752 5752 5752 5751 5750 5750
5723 5723 5723 5723 5723 5723 5724 5724 5725 5726 5728 5729 5731 5732 5733 5734 5736 5738 5739 5741 5742 5743 5745 5746 5746 5747 5748 5748 5748 5748 5748 5748 5747 5746 5745 5744 5745 5745 5745 5745 5744 5744 5743
5714 5714 5714 5715 5715 5715 5716 5716 5717 5718 5720 5721 5722 5724 5725 5727 5728 5730 5731 5732 5734 5735 5737 5738 5739 5739 5740 5740 5741 5741 5741 5740 5740 5739 5738 5737 5737 5737 5738 5738 5738 5738 5737